Milwaukee, WI

5:33 PM CST on February 05, 2016 (GMT -0600)
Gen Mitchell International

Weather History for KMKE - June, 2014

Change the Weather History Date:

Sunday, June 8, 2014

  Actual Average Record
Temperature  
Mean Temperature 59 °F 64 °F  
Max Temperature 64 °F 73 °F 93 °F (1933)
Min Temperature 53 °F 54 °F 39 °F (1913)
Degree Days  
Heating Degree Days 6 4  
Month to date heating degree days 15 39  
Since 1 June heating degree days 15 39  
Since 1 July heating degree days 7683 6849  
Cooling Degree Days 0 3  
Month to date cooling degree days 27 17  
Year to date cooling degree days 45 47  
Since 1 June cooling degree days 27 17  
Growing Degree Days 8 (Base 50)    
Moisture  
Dew Point 46 °F    
Average Humidity 65    
Maximum Humidity 83    
Minimum Humidity 47    
Precipitation  
Precipitation T in 0.13 in 2.25 in (2008)
Month to date precipitation 0.55 1.01  
Year to date precipitation 11.50 13.65  
Snow  
Snow 0.00 in 0.00 in 0.00 in ()
Month to date snowfall 0.0 0.0  
Since 1 June snowfall 0.0 0.0  
Since 1 July snowfall 63.4 46.9  
Snow Depth 0.00 in    
Sea Level Pressure  
Sea Level Pressure 30.02 in    
Wind  
Wind Speed 15 mph (NNE)    
Max Wind Speed 25 mph    
Max Gust Speed 36 mph    
Visibility 10 miles    
Events Rain    
T = Trace of Precipitation, MM = Missing Value Source: NWS Daily Summary

Daily Weather History Graph

Daily Weather History Graph

Search for Another Location

Airport or City:

Trip Planner

Search our weather history database for the weather conditions in past years. The results will help you decide how hot, cold, wet, or windy it might be!

Date:

Astronomy

Jun. 08, 2014 Rise Set
Actual Time 5:12 AM CDT 8:28 PM CDT
Civil Twilight 4:37 AM CDT 9:03 PM CDT
Nautical Twilight 3:52 AM CDT 9:49 PM CDT
Astronomical Twilight 2:57 AM CDT 10:44 PM CDT
Moon 3:40 PM CDT (6/8) 2:12 AM CDT (6/8)
Length of Visible Light 16h 25m
Length of Day
15h 15m
Waxing Gibbous, 77% of the Moon is Illuminated
Jun 8
Waxing Gibbous
Jun 12
Full
Jun 19
Last Quarter
Jun 27
New
Jul 5
First Quarter

Hourly Weather History & Observations

Time (CDT) Temp. Dew Point Humidity Pressure Visibility Wind Dir Wind Speed Gust Speed Precip Events Conditions
12:52 AM 53.1 °F 48.9 °F 86% 29.93 in 10.0 mi North 10.4 mph - 0.00 in Rain Light Rain
1:52 AM 55.9 °F 48.9 °F 77% 29.91 in 10.0 mi North 16.1 mph 23.0 mph 0.00 in   Overcast
2:52 AM 55.0 °F 50.0 °F 83% 29.91 in 10.0 mi NNE 17.3 mph 23.0 mph N/A   Overcast
3:52 AM 54.0 °F 48.9 °F 83% 29.94 in 10.0 mi NNE 13.8 mph - N/A   Overcast
4:52 AM 53.1 °F 48.9 °F 86% 29.95 in 10.0 mi North 19.6 mph 28.8 mph N/A   Overcast
5:52 AM 55.0 °F 48.9 °F 80% 29.97 in 10.0 mi North 18.4 mph 28.8 mph N/A   Overcast
6:52 AM 55.0 °F 48.9 °F 80% 29.98 in 10.0 mi North 20.7 mph 33.4 mph N/A   Mostly Cloudy
7:52 AM 57.0 °F 48.0 °F 72% 30.00 in 10.0 mi NNE 20.7 mph 33.4 mph N/A   Scattered Clouds
8:52 AM 59.0 °F 48.0 °F 67% 30.02 in 10.0 mi NNE 19.6 mph 31.1 mph N/A   Mostly Cloudy
9:52 AM 61.0 °F 48.0 °F 62% 30.04 in 10.0 mi North 16.1 mph - N/A   Mostly Cloudy
10:52 AM 60.1 °F 48.0 °F 64% 30.04 in 10.0 mi NNE 19.6 mph 28.8 mph N/A   Mostly Cloudy
11:27 AM 60.1 °F 48.0 °F 64% 30.04 in 10.0 mi NNE 23.0 mph 34.5 mph N/A   Scattered Clouds
11:52 AM 61.0 °F 48.0 °F 62% 30.05 in 10.0 mi NNE 17.3 mph 29.9 mph N/A   Partly Cloudy
12:52 PM 60.1 °F 45.0 °F 57% 30.06 in 10.0 mi NNE 19.6 mph 29.9 mph N/A   Partly Cloudy
1:52 PM 60.1 °F 44.1 °F 55% 30.07 in 10.0 mi NNE 19.6 mph 26.5 mph N/A   Partly Cloudy
2:52 PM 62.6 °F 44.6 °F 52% 30.06 in 10.0 mi NNE 13.8 mph - N/A   Scattered Clouds
3:52 PM 62.1 °F 45.0 °F 53% 30.05 in 10.0 mi NNE 12.7 mph - N/A   Scattered Clouds
4:52 PM 63.0 °F 44.1 °F 50% 30.05 in 10.0 mi NNE 12.7 mph 18.4 mph N/A   Scattered Clouds
5:52 PM 61.0 °F 43.0 °F 52% 30.05 in 10.0 mi NNE 13.8 mph - N/A   Scattered Clouds
6:52 PM 61.0 °F 42.1 °F 50% 30.05 in 10.0 mi NNE 11.5 mph - N/A   Scattered Clouds
7:52 PM 59.0 °F 39.9 °F 49% 30.05 in 10.0 mi NNE 11.5 mph - N/A   Scattered Clouds
8:52 PM 57.0 °F 39.0 °F 51% 30.06 in 10.0 mi NNE 9.2 mph - N/A   Scattered Clouds
9:52 PM 57.0 °F 39.0 °F 51% 30.06 in 10.0 mi North 11.5 mph - N/A   Scattered Clouds
10:52 PM 57.0 °F 39.9 °F 53% 30.06 in 10.0 mi North 10.4 mph - N/A   Scattered Clouds
11:52 PM 55.0 °F 39.9 °F 57% 30.06 in 10.0 mi NNE 10.4 mph - N/A   Scattered Clouds